| time (UTC) | temp F | wind direction | speed knots | gust knots | rain 1hr in | rain 24hr in | rain mn in | humidity % | barometer mb |
| 20260504201547 | 74 | 241 | 3.5 | 13.9 | 0.00 | 0.00 | 0.00 | 37 | 1011.1 |
| 20260504200039 | 74 | 0 | 1.7 | 18.2 | 0.00 | 0.00 | 0.00 | 39 | 1011.2 |
| 20260504194600 | 73 | 176 | 6.1 | 13.9 | 0.00 | 0.00 | 0.00 | 38 | 1011.5 |
| 20260504193044 | 73 | 225 | 7.0 | 17.4 | 0.00 | 0.00 | 0.00 | 36 | 1011.7 |
| 20260504191548 | 73 | 229 | 6.1 | 18.2 | 0.00 | 0.00 | 0.00 | 37 | 1012.1 |
| 20260504190055 | 73 | 207 | 4.3 | 20.0 | 0.00 | 0.00 | 0.00 | 37 | 1012.1 |
| 20260504184541 | 72 | 217 | 5.2 | 13.0 | 0.00 | 0.00 | 0.00 | 38 | 1012.2 |
| 20260504183035 | 72 | 179 | 4.3 | 10.4 | 0.00 | 0.00 | 0.00 | 39 | 1012.4 |
| 20260504181546 | 72 | 221 | 5.2 | 11.3 | 0.00 | 0.00 | 0.00 | 38 | 1012.7 |
| 20260504180114 | 71 | 286 | 4.3 | 13.0 | 0.00 | 0.00 | 0.00 | 36 | 1012.7 |
| 20260504174542 | 71 | 206 | 2.6 | 11.3 | 0.00 | 0.00 | 0.00 | 36 | 1012.9 |
| 20260504173044 | 71 | 236 | 2.6 | 9.6 | 0.00 | 0.00 | 0.00 | 36 | 1013.1 |
| 20260504171539 | 71 | 244 | 3.5 | 11.3 | 0.00 | 0.00 | 0.00 | 40 | 1013.0 |
| 20260504081545 | 48 | 0 | 0.0 | 2.6 | 0.00 | 0.00 | 0.00 | 85 | 1015.8 |
| 20260504050105 | 38 | 0 | 0.0 | 0.0 | 0.00 | 0.00 | 0.00 | 85 | 1015.8 |
| 20260504044539 | 39 | 0 | 0.0 | 0.0 | 0.00 | 0.00 | 0.00 | 84 | 1015.9 |
| 20260504043045 | 39 | 0 | 0.0 | 0.0 | 0.00 | 0.00 | 0.00 | 82 | 1015.8 |
| 20260504041543 | 40 | 0 | 0.0 | 0.0 | 0.00 | 0.00 | 0.00 | 81 | 1015.7 |
| 20260504040044 | 40 | 0 | 0.0 | 0.0 | 0.00 | 0.00 | 0.00 | 81 | 1015.5 |
| 20260504034549 | 40 | 0 | 0.0 | 0.0 | 0.00 | 0.00 | 0.00 | 79 | 1015.5 |
| 20260504033044 | 41 | 0 | 0.0 | 0.9 | 0.00 | 0.00 | 0.00 | 79 | 1015.4 |
| 20260504031556 | 40 | 0 | 0.0 | 0.9 | 0.00 | 0.00 | 0.00 | 79 | 1015.3 |
| 20260504030045 | 41 | 0 | 0.0 | 0.0 | 0.00 | 0.00 | 0.00 | 79 | 1015.3 |
| 20260504024544 | 41 | 0 | 0.0 | 0.0 | 0.00 | 0.00 | 0.00 | 79 | 1015.2 |
| 20260504023043 | 41 | 0 | 0.0 | 0.0 | 0.00 | 0.00 | 0.00 | 78 | 1015.3 |
| 20260504021541 | 41 | 0 | 0.0 | 0.9 | 0.00 | 0.00 | 0.00 | 77 | 1015.2 |
| 20260504020041 | 42 | 0 | 0.0 | 0.0 | 0.00 | 0.00 | 0.00 | 76 | 1015.2 |
| 20260504014546 | 43 | 0 | 0.0 | 0.0 | 0.00 | 0.00 | 0.00 | 74 | 1015.2 |
| 20260504013046 | 44 | 0 | 0.0 | 0.0 | 0.00 | 0.00 | 0.00 | 74 | 1015.1 |
| 20260504011546 | 45 | 0 | 0.0 | 0.0 | 0.00 | 0.00 | 0.00 | 70 | 1015.1 |
| 20260504010046 | 46 | 0 | 0.0 | 0.0 | 0.00 | 0.00 | 0.00 | 67 | 1015.0 |
| 20260504004542 | 48 | 0 | 0.0 | 0.0 | 0.00 | 0.00 | 0.00 | 64 | 1014.7 |
| 20260504003045 | 50 | 0 | 0.0 | 0.0 | 0.00 | 0.00 | 0.00 | 60 | 1014.5 |
| 20260504001552 | 52 | 0 | 0.0 | 0.0 | 0.00 | 0.00 | 0.00 | 55 | 1014.5 |
| 20260504000045 | 55 | 0 | 0.0 | 0.0 | 0.00 | 0.00 | 0.00 | 50 | 1014.2 |
| 20260503234544 | 57 | 0 | 0.0 | 1.7 | 0.00 | 0.00 | 0.00 | 42 | 1014.1 |
| 20260503233042 | 58 | 0 | 0.0 | 4.3 | 0.00 | 0.00 | 0.00 | 40 | 1014.0 |
| 20260503231547 | 59 | 207 | 0.0 | 3.5 | 0.00 | 0.00 | 0.00 | 38 | 1014.1 |
| 20260503230039 | 60 | 182 | 0.0 | 9.6 | 0.00 | 0.00 | 0.00 | 36 | 1014.1 |
| 20260503224539 | 60 | 229 | 1.7 | 7.0 | 0.00 | 0.00 | 0.00 | 36 | 1014.0 |
| 20260503223045 | 60 | 325 | 1.7 | 7.0 | 0.00 | 0.00 | 0.00 | 36 | 1014.0 |
| 20260503221540 | 60 | 178 | 2.6 | 9.6 | 0.00 | 0.00 | 0.00 | 36 | 1014.2 |
| 20260503220043 | 60 | 0 | 2.6 | 10.4 | 0.00 | 0.00 | 0.00 | 35 | 1014.1 |
| 20260503214548 | 60 | 360 | 3.5 | 12.2 | 0.00 | 0.00 | 0.00 | 37 | 1014.2 |
| 20260503213101 | 60 | 283 | 2.6 | 7.0 | 0.00 | 0.00 | 0.00 | 37 | 1014.1 |
| 20260503211612 | 60 | 327 | 2.6 | 9.6 | 0.00 | 0.00 | 0.00 | 37 | 1014.0 |
| 20260503210043 | 60 | 219 | 2.6 | 13.9 | 0.00 | 0.00 | 0.00 | 39 | 1014.1 |
| 20260503204559 | 60 | 331 | 2.6 | 14.8 | 0.00 | 0.00 | 0.00 | 38 | 1014.1 |
| 20260503203042 | 59 | 139 | 5.2 | 19.1 | 0.00 | 0.00 | 0.00 | 39 | 1014.3 |